This demonstration page uses our WeatherBlox Daily Observations layout. Learn more.

Left ArrowRight Arrow

Hourly Observations for May 1, 2018

Temp ( °F °C ) Dew Point ( °F °C ) Humidity (%) Winds ( mph kmh ) Pressure ( in mb ) Visibility ( mi km ) Precip ( " mm )
12:59 am 00:59 Clear 58 14.4 33 0.6 39 39 SW 8 13 30.15 1021 10 16 0.00 0.00
1:59 am 01:59 Clear 58 14.4 34 1.1 41 41 SW 10 17 30.14 1021 10 16 0.00 0.00
2:59 am 02:59 Clear 54 12.2 35 1.7 49 49 WNW 7 11 30.15 1021 10 16 0.00 0.00
3:59 am 03:59 Clear 53 11.7 36 2.2 52 52 SW 5 7 30.15 1021 10 16 0.00 0.00
4:59 am 04:59 Clear 52 11.1 37 2.8 57 57 SW 5 7 30.16 1021 10 16 0.00 0.00
5:59 am 05:59 Clear 50 10 38 3.3 63 63 SW 6 9 30.17 1022 10 16 0.00 0.00
6:59 am 06:59 Sunny 51 10.6 40 4.4 66 66 SW 6 9 30.20 1023 10 16 0.00 0.00
7:59 am 07:59 Sunny 56 13.3 42 5.6 60 60 WSW 5 7 30.21 1023 10 16 0.00 0.00
8:59 am 08:59 Sunny 61 16.1 42 5.6 50 50 W 5 7 30.23 1024 10 16 0.00 0.00
9:59 am 09:59 Sunny 67 19.4 40 4.4 37 37 W 5 7 30.23 1024 10 16 0.00 0.00
10:59 am 10:59 Sunny 71 21.7 36 2.2 28 28 WNW 5 7 30.24 1024 10 16 0.00 0.00
11:59 am 11:59 Sunny 74 23.3 32 0 21 21 WNW 5 7 30.23 1024 10 16 0.00 0.00
12:59 pm 12:59 Sunny 77 25 28 -2.2 16 16 NW 6 9 30.22 1023 9 14 0.00 0.00
1:59 pm 13:59 Sunny 78 25.6 35 1.7 21 21 VRB 6 9 30.19 1022 10 16 0.00 0.00
2:59 pm 14:59 Sunny 79 26.1 32 0 18 18 WSW 3 6 30.17 1022 10 16 0.00 0.00
3:59 pm 15:59 Sunny 80 26.7 29 -1.7 15 15 W 9 15 30.16 1021 10 16 0.00 0.00
4:59 pm 16:59 Sunny 79 26.1 39 3.9 24 24 E 9 15 30.17 1022 10 16 0.00 0.00
5:59 pm 17:59 Sunny 78 25.6 37 2.8 23 23 ESE 8 13 30.16 1022 10 16 0.00 0.00
6:59 pm 18:59 Sunny 73 22.8 35 1.7 25 25 SE 8 13 30.17 1022 10 16 0.00 0.00
7:59 pm 19:59 Clear 61 16.1 31 -0.6 32 32 SSW 3 6 30.12 1020 10 16 0.00 0.00
8:59 pm 20:59 Clear 66 18.9 42 5.6 42 42 SSE 6 9 30.19 1022 10 16 0.00 0.00
9:59 pm 21:59 Clear 65 18.3 44 6.7 47 47 SSE 8 13 30.19 1022 10 16 0.00 0.00
10:59 pm 22:59 Clear 64 17.8 45 7.2 50 50 S 7 11 30.20 1023 10 16 0.00 0.00
11:59 pm 23:59 Clear 62 16.7 47 8.3 58 58 S 6 9 30.21 1023 10 16 0.00 0.00

Powered by AerisWeather